When you browse on this site, cookies collect data to enhance your experience and personalize the content and advertising you see.
Visit our Privacy Policy to learn more. By continuing to use the site, you agree to this use of cookies and data.
  • In Czech Republic
  • List of Countries
  • For 7 days
  • Water Temperature
  • Satellite Maps
  • Weather Map
  • Weather Widgets
  • user-avatar
    Login

    Hourly Weather Fier

    Today, 18 December, Tuesday

    Time Temperature Precipitation Wind Pressure Humidity
    00:00 +6°C° 1.6 mm 5 mps 758 mmHg 85%
    01:00 +6°C° 0 mm 5 mps 758 mmHg 87%
    02:00 +6°C° 1 mm 5 mps 759 mmHg 86%
    03:00 +6°C° 1 mm 5 mps 759 mmHg 85%
    04:00 +4°C° 1 mm 6 mps 759 mmHg 84%
    05:00 +4°C° 0.4 mm 6 mps 760 mmHg 84%
    06:00 +5°C° 0.4 mm 5 mps 760 mmHg 85%
    07:00 +4°C° 0 mm 6 mps 760 mmHg 86%
    08:00 +4°C° 0.2 mm 6 mps 761 mmHg 84%
    09:00 +5°C° 0.2 mm 5 mps 761 mmHg 83%
    10:00 +6°C° 0.2 mm 5 mps 761 mmHg 82%
    11:00 +6°C° 0 mm 5 mps 761 mmHg 80%
    12:00 +7°C° 0 mm 5 mps 762 mmHg 78%
    13:00 +8°C° 0 mm 5 mps 762 mmHg 77%
    14:00 +7°C° 0 mm 5 mps 762 mmHg 78%
    15:00 +7°C° 0 mm 5 mps 762 mmHg 79%
    16:00 +6°C° 0 mm 5 mps 762 mmHg 80%
    17:00 +5°C° 0 mm 5 mps 763 mmHg 81%
    18:00 +5°C° 0 mm 5 mps 763 mmHg 81%
    19:00 +3°C° 0 mm 5 mps 764 mmHg 81%
    20:00 +4°C° 0 mm 4 mps 764 mmHg 81%
    21:00 +4°C° 0 mm 4 mps 764 mmHg 80%
    22:00 +4°C° 0 mm 4 mps 765 mmHg 80%
    23:00 +4°C° 0 mm 4 mps 765 mmHg 80%

    Tomorrow, 19 December, Wednesday

    Time Temperature Precipitation Wind Pressure Humidity
    00:00 +3°C° 0 mm 4 mps 765 mmHg 80%
    01:00 +3°C° 0 mm 4 mps 765 mmHg 80%
    02:00 +3°C° 0 mm 4 mps 765 mmHg 80%
    03:00 +3°C° 0 mm 4 mps 765 mmHg 80%
    04:00 +3°C° 0 mm 4 mps 765 mmHg 80%
    05:00 +3°C° 0 mm 4 mps 766 mmHg 79%
    06:00 +3°C° 0 mm 4 mps 766 mmHg 78%
    07:00 +2°C° 0 mm 3 mps 766 mmHg 78%
    08:00 +4°C° 0 mm 3 mps 767 mmHg 75%
    09:00 +5°C° 0 mm 3 mps 767 mmHg 72%
    10:00 +8°C° 0 mm 3 mps 767 mmHg 69%
    11:00 +8°C° 0 mm 3 mps 767 mmHg 69%
    12:00 +9°C° 0 mm 3 mps 767 mmHg 68%
    13:00 +10°C° 0 mm 3 mps 767 mmHg 68%
    14:00 +9°C° 0 mm 3 mps 767 mmHg 71%
    15:00 +8°C° 0 mm 2 mps 767 mmHg 74%
    16:00 +8°C° 0 mm 2 mps 767 mmHg 77%
    17:00 +7°C° 0 mm 2 mps 767 mmHg 78%
    18:00 +6°C° 0 mm 2 mps 767 mmHg 78%
    19:00 +6°C° 0 mm 2 mps 768 mmHg 78%
    20:00 +6°C° 0 mm 2 mps 768 mmHg 78%
    21:00 +5°C° 0 mm 2 mps 768 mmHg 77%
    22:00 +5°C° 0 mm 2 mps 768 mmHg 76%
    23:00 +5°C° 0 mm 2 mps 768 mmHg 76%

    Day after tomorrow, 20 December, Thursday

    Time Temperature Precipitation Wind Pressure Humidity
    00:00 +5°C° 0 mm 2 mps 768 mmHg 76%
    01:00 +5°C° 0 mm 2 mps 768 mmHg 76%
    02:00 +5°C° 0 mm 2 mps 768 mmHg 76%
    03:00 +4°C° 0 mm 3 mps 768 mmHg 77%
    04:00 +4°C° 0 mm 3 mps 768 mmHg 77%
    05:00 +5°C° 0 mm 3 mps 768 mmHg 77%
    06:00 +5°C° 0 mm 3 mps 768 mmHg 77%
    07:00 +5°C° 0 mm 3 mps 768 mmHg 77%
    08:00 +6°C° 0 mm 4 mps 768 mmHg 75%
    09:00 +8°C° 0 mm 4 mps 768 mmHg 74%
    10:00 +10°C° 0 mm 4 mps 768 mmHg 72%
    11:00 +11°C° 0 mm 4 mps 768 mmHg 71%
    12:00 +11°C° 0 mm 4 mps 767 mmHg 70%
    13:00 +12°C° 0 mm 4 mps 767 mmHg 68%
    14:00 +11°C° 0 mm 4 mps 767 mmHg 71%
    15:00 +10°C° 0 mm 4 mps 767 mmHg 74%
    16:00 +8°C° 0 mm 4 mps 767 mmHg 77%
    17:00 +8°C° 0 mm 4 mps 767 mmHg 78%
    18:00 +7°C° 0 mm 5 mps 768 mmHg 79%
    19:00 +7°C° 0 mm 5 mps 768 mmHg 79%
    20:00 +6°C° 0 mm 5 mps 768 mmHg 79%
    21:00 +6°C° 0 mm 5 mps 768 mmHg 79%
    22:00 +6°C° 0 mm 5 mps 768 mmHg 79%
    23:00 +6°C° 0 mm 5 mps 768 mmHg 79%

    21 December, Friday

    Time Temperature Precipitation Wind Pressure Humidity
    00:00 +6°C° 0 mm 4 mps 768 mmHg 78%
    01:00 +6°C° 0 mm 4 mps 768 mmHg 77%
    02:00 +7°C° 0.1 mm 4 mps 768 mmHg 77%
    03:00 +7°C° 0.1 mm 4 mps 768 mmHg 78%
    04:00 +7°C° 0.1 mm 4 mps 768 mmHg 78%
    05:00 +8°C° 0.1 mm 3 mps 768 mmHg 79%
    06:00 +8°C° 0.1 mm 3 mps 768 mmHg 80%
    07:00 +8°C° 0.1 mm 3 mps 768 mmHg 81%
    08:00 +10°C° 0.2 mm 3 mps 769 mmHg 80%
    09:00 +12°C° 0.2 mm 2 mps 769 mmHg 78%
    10:00 +13°C° 0.2 mm 2 mps 769 mmHg 77%
    11:00 +13°C° 0 mm 2 mps 769 mmHg 75%
    12:00 +14°C° 0 mm 1 mps 768 mmHg 74%
    13:00 +15°C° 0 mm 1 mps 768 mmHg 72%
    14:00 +14°C° 0 mm 1 mps 768 mmHg 76%
    15:00 +13°C° 0 mm 1 mps 769 mmHg 80%
    16:00 +12°C° 0 mm 1 mps 769 mmHg 84%
    17:00 +12°C° 0 mm 1 mps 769 mmHg 85%
    18:00 +11°C° 0 mm 1 mps 769 mmHg 87%
    19:00 +10°C° 0 mm 1 mps 770 mmHg 88%
    20:00 +10°C° 0 mm 1 mps 770 mmHg 88%
    21:00 +9°C° 0 mm 2 mps 770 mmHg 87%
    22:00 +9°C° 0 mm 2 mps 770 mmHg 87%
    23:00 +8°C° 0 mm 2 mps 770 mmHg 87%

    22 December, Saturday

    Time Temperature Precipitation Wind Pressure Humidity
    00:00 +8°C° 0 mm 2 mps 770 mmHg 86%
    01:00 +8°C° 0 mm 2 mps 769 mmHg 86%
    02:00 +8°C° 0 mm 2 mps 769 mmHg 86%
    03:00 +8°C° 0 mm 2 mps 769 mmHg 86%
    04:00 +8°C° 0 mm 2 mps 769 mmHg 86%
    05:00 +8°C° 0 mm 2 mps 769 mmHg 87%
    06:00 +8°C° 0 mm 2 mps 769 mmHg 88%
    07:00 +8°C° 0 mm 2 mps 769 mmHg 89%
    08:00 +10°C° 0 mm 1 mps 769 mmHg 85%
    09:00 +12°C° 0 mm 1 mps 769 mmHg 81%
    10:00 +13°C° 0 mm 1 mps 770 mmHg 76%
    11:00 +13°C° 0 mm 1 mps 769 mmHg 75%
    12:00 +14°C° 0 mm 1 mps 769 mmHg 73%
    13:00 +14°C° 0 mm 2 mps 769 mmHg 71%
    14:00 +14°C° 0 mm 1 mps 768 mmHg 74%
    15:00 +13°C° 0 mm 1 mps 768 mmHg 78%
    16:00 +12°C° 0 mm 1 mps 768 mmHg 81%
    17:00 +12°C° 0 mm 1 mps 769 mmHg 83%
    18:00 +11°C° 0 mm 1 mps 769 mmHg 84%
    19:00 +10°C° 0 mm 1 mps 769 mmHg 86%
    20:00 +10°C° 0 mm 1 mps 769 mmHg 85%
    21:00 +10°C° 0 mm 1 mps 769 mmHg 85%
    22:00 +9°C° 0 mm 2 mps 769 mmHg 84%
    23:00 +10°C° 0 mm 1 mps 769 mmHg 83%

    23 December, Sunday

    Time Temperature Precipitation Wind Pressure Humidity
    00:00 +9°C° 0 mm 1 mps 768 mmHg 83%
    01:00 +9°C° 0 mm 1 mps 768 mmHg 82%
    02:00 +9°C° 0 mm 1 mps 768 mmHg 81%
    03:00 +9°C° 0 mm 1 mps 768 mmHg 81%
    04:00 +9°C° 0 mm 1 mps 768 mmHg 80%
    05:00 +9°C° 0 mm 1 mps 768 mmHg 80%
    06:00 +9°C° 0 mm 1 mps 768 mmHg 81%
    07:00 +9°C° 0 mm 1 mps 768 mmHg 81%
    08:00 +10°C° 0 mm 1 mps 768 mmHg 78%
    09:00 +12°C° 0 mm 1 mps 769 mmHg 74%
    10:00 +13°C° 0 mm 1 mps 769 mmHg 71%
    11:00 +14°C° 0 mm 1 mps 768 mmHg 71%
    12:00 +15°C° 0 mm 1 mps 768 mmHg 71%
    13:00 +15°C° 0 mm 1 mps 768 mmHg 70%
    14:00 +14°C° 0 mm 1 mps 768 mmHg 75%
    15:00 +13°C° 0 mm 1 mps 768 mmHg 79%
    16:00 +13°C° 0 mm 1 mps 768 mmHg 83%
    17:00 +12°C° 0 mm 1 mps 768 mmHg 84%
    18:00 +11°C° 0 mm 1 mps 768 mmHg 86%
    19:00 +11°C° 0 mm 1 mps 768 mmHg 87%
    20:00 +11°C° 0 mm 1 mps 769 mmHg 86%
    21:00 +10°C° 0 mm 1 mps 769 mmHg 86%
    22:00 +9°C° 0 mm 2 mps 769 mmHg 85%
    23:00 +9°C° 0 mm 2 mps 769 mmHg 85%
    Show more